Time,TemperatureF,DewpointF,PressureIn,WindDirection,WindDirectionDegrees,WindSpeedMPH,WindSpeedGustMPH,Humidity,HourlyPrecipIn,Conditions,Clouds,dailyrainin,SoftwareType,DateUTC
2013-02-24 00:00:00,46.0,33.3,30.23,WNW,296,0.0,0.0,61,0.00,,---,0.00,VWS V14.00,2013-02-24 08:00:00,
2013-02-24 00:04:00,45.9,33.2,30.23,WNW,296,0.0,0.0,61,0.00,,---,0.00,VWS V14.00,2013-02-24 08:04:00,
2013-02-24 00:09:00,46.1,33.4,30.23,WNW,296,0.0,1.0,61,0.00,,---,0.00,VWS V14.00,2013-02-24 08:09:00,
2013-02-24 00:14:00,46.2,33.5,30.22,WNW,296,0.0,1.0,61,0.00,,---,0.00,VWS V14.00,2013-02-24 08:14:00,
2013-02-24 00:19:00,46.4,33.3,30.23,ENE,65,0.0,5.0,60,0.00,,---,0.00,VWS V14.00,2013-02-24 08:19:00,
2013-02-24 00:24:00,46.6,33.5,30.23,ENE,65,0.0,5.0,60,0.00,,---,0.00,VWS V14.00,2013-02-24 08:24:00,
2013-02-24 00:29:00,46.7,33.6,30.23,NNE,13,2.0,3.0,60,0.00,,---,0.00,VWS V14.00,2013-02-24 08:29:00,
2013-02-24 00:30:00,46.7,33.6,30.23,NNE,13,3.0,5.0,60,0.00,,---,0.00,VWS V14.00,2013-02-24 08:30:00,
2013-02-24 00:34:00,46.7,33.6,30.23,WSW,245,0.0,4.0,60,0.00,,---,0.00,VWS V14.00,2013-02-24 08:34:00,
2013-02-24 00:39:00,46.5,33.4,30.23,WSW,245,0.0,4.0,60,0.00,,---,0.00,VWS V14.00,2013-02-24 08:39:00,
2013-02-24 00:44:00,46.1,33.0,30.23,WSW,245,0.0,4.0,60,0.00,,---,0.00,VWS V14.00,2013-02-24 08:44:00,
2013-02-24 00:49:00,45.8,33.1,30.23,WSW,245,0.0,4.0,61,0.00,,---,0.00,VWS V14.00,2013-02-24 08:49:00,
2013-02-24 00:54:00,45.7,33.0,30.22,WSW,245,0.0,4.0,61,0.00,,---,0.00,VWS V14.00,2013-02-24 08:54:00,
2013-02-24 00:59:00,45.5,32.8,30.23,WSW,245,0.0,0.0,61,0.00,,---,0.00,VWS V14.00,2013-02-24 08:59:00,
2013-02-24 01:00:00,45.5,32.8,30.23,WSW,245,0.0,4.0,61,0.00,,---,0.00,VWS V14.00,2013-02-24 09:00:00,
2013-02-24 01:04:00,45.4,32.8,30.23,WSW,245,0.0,0.0,61,0.00,,---,0.00,VWS V14.00,2013-02-24 09:04:00,
2013-02-24 01:09:00,45.3,32.7,30.23,WSW,245,0.0,0.0,61,0.00,,---,0.00,VWS V14.00,2013-02-24 09:09:00,
2013-02-24 01:14:00,45.2,32.6,30.23,WSW,245,0.0,0.0,61,0.00,,---,0.00,VWS V14.00,2013-02-24 09:14:00,
2013-02-24 01:19:00,45.1,32.1,30.23,WSW,245,0.0,0.0,60,0.00,,---,0.00,VWS V14.00,2013-02-24 09:19:00,
2013-02-24 01:24:00,45.1,32.1,30.23,WSW,245,0.0,0.0,60,0.00,,---,0.00,VWS V14.00,2013-02-24 09:24:00,
2013-02-24 01:29:00,45.0,32.0,30.23,WSW,245,0.0,0.0,60,0.00,,---,0.00,VWS V14.00,2013-02-24 09:29:00,
2013-02-24 01:30:00,45.0,32.0,30.23,WSW,245,0.0,0.0,60,0.00,,---,0.00,VWS V14.00,2013-02-24 09:30:00,
2013-02-24 01:34:00,44.8,31.8,30.23,WSW,245,0.0,0.0,60,0.00,,---,0.00,VWS V14.00,2013-02-24 09:34:00,
2013-02-24 01:39:00,44.7,31.7,30.23,WSW,245,0.0,0.0,60,0.00,,---,0.00,VWS V14.00,2013-02-24 09:39:00,
2013-02-24 01:44:00,44.9,31.9,30.23,WSW,245,0.0,3.0,60,0.00,,---,0.00,VWS V14.00,2013-02-24 09:44:00,
2013-02-24 01:49:00,45.3,31.4,30.22,WSW,245,0.0,3.0,58,0.00,,---,0.00,VWS V14.00,2013-02-24 09:49:00,
2013-02-24 01:54:00,45.4,31.5,30.22,WSW,245,0.0,3.0,58,0.00,,---,0.00,VWS V14.00,2013-02-24 09:54:00,
2013-02-24 01:59:00,45.3,31.4,30.22,WSW,245,0.0,3.0,58,0.00,,---,0.00,VWS V14.00,2013-02-24 09:59:00,
2013-02-24 02:00:00,45.4,31.5,30.22,WSW,245,0.0,3.0,58,0.00,,---,0.00,VWS V14.00,2013-02-24 10:00:00,
2013-02-24 02:04:00,45.2,31.3,30.23,WSW,245,0.0,0.0,58,0.00,,---,0.00,VWS V14.00,2013-02-24 10:04:00,
2013-02-24 02:09:00,45.1,31.2,30.22,WSW,245,0.0,0.0,58,0.00,,---,0.00,VWS V14.00,2013-02-24 10:09:00,
2013-02-24 02:14:00,44.9,31.0,30.22,WSW,245,0.0,0.0,58,0.00,,---,0.00,VWS V14.00,2013-02-24 10:14:00,
2013-02-24 02:19:00,44.7,30.9,30.22,WSW,245,0.0,0.0,58,0.00,,---,0.00,VWS V14.00,2013-02-24 10:19:00,
2013-02-24 02:24:00,44.8,31.4,30.22,WSW,245,0.0,0.0,59,0.00,,---,0.00,VWS V14.00,2013-02-24 10:24:00,
2013-02-24 02:29:00,45.1,31.6,30.22,WSW,245,0.0,1.0,59,0.00,,---,0.00,VWS V14.00,2013-02-24 10:29:00,
2013-02-24 02:30:00,45.1,31.2,30.22,WSW,245,0.0,1.0,58,0.00,,---,0.00,VWS V14.00,2013-02-24 10:30:00,
2013-02-24 02:34:00,45.5,31.2,30.22,WSW,245,0.0,0.0,57,0.00,,---,0.00,VWS V14.00,2013-02-24 10:34:00,
2013-02-24 02:39:00,45.6,30.4,30.22,WSW,245,0.0,0.0,55,0.00,,---,0.00,VWS V14.00,2013-02-24 10:39:00,
2013-02-24 02:44:00,45.6,30.4,30.22,WSW,245,0.0,0.0,55,0.00,,---,0.00,VWS V14.00,2013-02-24 10:44:00,
2013-02-24 02:49:00,45.6,29.9,30.22,WSW,245,0.0,0.0,54,0.00,,---,0.00,VWS V14.00,2013-02-24 10:49:00,
2013-02-24 02:54:00,45.6,29.9,30.22,WSW,245,0.0,0.0,54,0.00,,---,0.00,VWS V14.00,2013-02-24 10:54:00,
2013-02-24 02:59:00,45.6,29.5,30.22,WSW,245,0.0,0.0,53,0.00,,---,0.00,VWS V14.00,2013-02-24 10:59:00,
2013-02-24 03:00:00,45.6,29.5,30.22,WSW,245,0.0,0.0,53,0.00,,---,0.00,VWS V14.00,2013-02-24 11:00:00,
2013-02-24 03:04:00,45.7,30.0,30.22,ENE,68,2.0,4.0,54,0.00,,---,0.00,VWS V14.00,2013-02-24 11:04:00,
2013-02-24 03:09:00,45.8,31.0,30.22,East,84,0.0,4.0,56,0.00,,---,0.00,VWS V14.00,2013-02-24 11:09:00,
2013-02-24 03:14:00,45.6,30.8,30.22,East,84,0.0,4.0,56,0.00,,---,0.00,VWS V14.00,2013-02-24 11:14:00,
2013-02-24 03:19:00,45.4,31.1,30.21,East,84,0.0,4.0,57,0.00,,---,0.00,VWS V14.00,2013-02-24 11:19:00,
2013-02-24 03:24:00,45.2,30.9,30.21,East,84,0.0,4.0,57,0.00,,---,0.00,VWS V14.00,2013-02-24 11:24:00,
2013-02-24 03:29:00,45.2,30.9,30.22,ENE,73,0.0,5.0,57,0.00,,---,0.00,VWS V14.00,2013-02-24 11:29:00,
2013-02-24 03:30:00,45.2,30.9,30.22,ENE,73,0.0,5.0,57,0.00,,---,0.00,VWS V14.00,2013-02-24 11:30:00,
2013-02-24 03:34:00,45.3,31.0,30.21,ENE,59,0.0,1.0,57,0.00,,---,0.00,VWS V14.00,2013-02-24 11:34:00,
2013-02-24 03:39:00,45.4,31.1,30.20,ENE,59,0.0,3.0,57,0.00,,---,0.00,VWS V14.00,2013-02-24 11:39:00,
2013-02-24 03:44:00,45.3,31.0,30.21,ENE,59,0.0,3.0,57,0.00,,---,0.00,VWS V14.00,2013-02-24 11:44:00,
2013-02-24 03:49:00,45.1,31.2,30.21,ENE,59,0.0,3.0,58,0.00,,---,0.00,VWS V14.00,2013-02-24 11:49:00,
2013-02-24 03:54:00,45.0,31.1,30.22,NE,47,0.0,4.0,58,0.00,,---,0.00,VWS V14.00,2013-02-24 11:54:00,
2013-02-24 03:59:00,45.0,31.1,30.21,ENE,71,0.0,4.0,58,0.00,,---,0.00,VWS V14.00,2013-02-24 11:59:00,
2013-02-24 04:00:00,45.0,31.1,30.21,ENE,71,0.0,4.0,58,0.00,,---,0.00,VWS V14.00,2013-02-24 12:00:00,
2013-02-24 04:04:00,44.9,31.0,30.21,ENE,71,0.0,0.0,58,0.00,,---,0.00,VWS V14.00,2013-02-24 12:04:00,
2013-02-24 04:09:00,44.7,30.9,30.22,ENE,71,0.0,0.0,58,0.00,,---,0.00,VWS V14.00,2013-02-24 12:09:00,
2013-02-24 04:14:00,44.5,30.7,30.22,ENE,71,0.0,0.0,58,0.00,,---,0.00,VWS V14.00,2013-02-24 12:14:00,
2013-02-24 04:19:00,44.2,30.8,30.22,ENE,71,0.0,0.0,59,0.00,,---,0.00,VWS V14.00,2013-02-24 12:19:00,
2013-02-24 04:23:00,44.0,30.6,30.21,ENE,71,0.0,0.0,59,0.00,,---,0.00,VWS V14.00,2013-02-24 12:23:00,
2013-02-24 04:28:00,43.8,30.4,30.22,ENE,71,0.0,0.0,59,0.00,,---,0.00,VWS V14.00,2013-02-24 12:28:00,
2013-02-24 04:30:00,43.7,30.3,30.22,ENE,71,0.0,0.0,59,0.00,,---,0.00,VWS V14.00,2013-02-24 12:30:00,
2013-02-24 04:33:00,43.5,29.7,30.22,ENE,71,0.0,0.0,58,0.00,,---,0.00,VWS V14.00,2013-02-24 12:33:00,
2013-02-24 04:39:00,43.4,29.6,30.22,ENE,71,0.0,0.0,58,0.00,,---,0.00,VWS V14.00,2013-02-24 12:39:00,
2013-02-24 04:45:00,43.2,29.9,30.21,ENE,71,0.0,0.0,59,0.00,,---,0.00,VWS V14.00,2013-02-24 12:45:00,
2013-02-24 04:52:00,43.0,30.5,30.22,ENE,71,0.0,2.0,61,0.00,,---,0.00,VWS V14.00,2013-02-24 12:52:00,
2013-02-24 04:57:00,42.8,30.7,30.22,ENE,71,0.0,2.0,62,0.00,,---,0.00,VWS V14.00,2013-02-24 12:57:00,
2013-02-24 05:00:00,42.7,30.6,30.22,ENE,71,0.0,2.0,62,0.00,,---,0.00,VWS V14.00,2013-02-24 13:00:00,
2013-02-24 05:02:00,42.6,30.5,30.22,ENE,71,0.0,0.0,62,0.00,,---,0.00,VWS V14.00,2013-02-24 13:02:00,
2013-02-24 05:07:00,42.3,30.2,30.22,ENE,71,0.0,0.0,62,0.00,,---,0.00,VWS V14.00,2013-02-24 13:07:00,
2013-02-24 05:12:00,42.1,30.0,30.22,ENE,71,0.0,0.0,62,0.00,,---,0.00,VWS V14.00,2013-02-24 13:12:00,
2013-02-24 05:17:00,41.9,29.9,30.22,ENE,71,0.0,0.0,62,0.00,,---,0.00,VWS V14.00,2013-02-24 13:17:00,
2013-02-24 05:22:00,41.8,29.4,30.22,ENE,71,0.0,0.0,61,0.00,,---,0.00,VWS V14.00,2013-02-24 13:22:00,
2013-02-24 05:27:00,42.0,29.1,30.23,ENE,71,0.0,1.0,60,0.00,,---,0.00,VWS V14.00,2013-02-24 13:27:00,
2013-02-24 05:30:00,42.2,29.3,30.22,ENE,71,0.0,1.0,60,0.00,,---,0.00,VWS V14.00,2013-02-24 13:30:00,
2013-02-24 05:32:00,42.5,29.6,30.22,ENE,71,0.0,3.0,60,0.00,,---,0.00,VWS V14.00,2013-02-24 13:32:00,
2013-02-24 05:37:00,42.9,29.6,30.23,ENE,71,0.0,4.0,59,0.00,,---,0.00,VWS V14.00,2013-02-24 13:37:00,
2013-02-24 05:42:00,43.2,29.4,30.22,ENE,71,0.0,4.0,58,0.00,,---,0.00,VWS V14.00,2013-02-24 13:42:00,
2013-02-24 05:47:00,43.4,29.2,30.23,ENE,71,0.0,4.0,57,0.00,,---,0.00,VWS V14.00,2013-02-24 13:47:00,
2013-02-24 05:52:00,43.3,29.1,30.23,NW,315,0.0,7.0,57,0.00,,---,0.00,VWS V14.00,2013-02-24 13:52:00,
2013-02-24 05:57:00,43.4,28.8,30.23,East,84,0.0,7.0,56,0.00,,---,0.00,VWS V14.00,2013-02-24 13:57:00,
2013-02-24 06:00:00,43.4,28.8,30.23,East,84,0.0,7.0,56,0.00,,---,0.00,VWS V14.00,2013-02-24 14:00:00,
2013-02-24 06:02:00,43.6,28.5,30.23,East,84,0.0,0.0,55,0.00,,---,0.00,VWS V14.00,2013-02-24 14:02:00,
2013-02-24 06:07:00,43.5,28.9,30.23,East,84,0.0,0.0,56,0.00,,---,0.00,VWS V14.00,2013-02-24 14:07:00,
2013-02-24 06:12:00,43.4,28.8,30.23,NE,43,0.0,4.0,56,0.00,,---,0.00,VWS V14.00,2013-02-24 14:12:00,
2013-02-24 06:17:00,43.5,28.4,30.23,ENE,57,2.0,4.0,55,0.00,,---,0.00,VWS V14.00,2013-02-24 14:17:00,
2013-02-24 06:22:00,43.6,28.5,30.23,ENE,66,0.0,4.0,55,0.00,,---,0.00,VWS V14.00,2013-02-24 14:22:00,
2013-02-24 06:27:00,43.7,28.2,30.24,ENE,71,0.0,4.0,54,0.00,,---,0.00,VWS V14.00,2013-02-24 14:27:00,
2013-02-24 06:30:00,43.7,28.2,30.24,ENE,71,0.0,4.0,54,0.00,,---,0.00,VWS V14.00,2013-02-24 14:30:00,
2013-02-24 06:32:00,43.7,28.2,30.24,ENE,70,3.0,3.0,54,0.00,,---,0.00,VWS V14.00,2013-02-24 14:32:00,
2013-02-24 06:37:00,43.5,28.0,30.23,NE,55,0.0,4.0,54,0.00,,---,0.00,VWS V14.00,2013-02-24 14:37:00,
2013-02-24 06:43:00,43.5,28.0,30.24,ENE,62,3.0,4.0,54,0.00,,---,0.00,VWS V14.00,2013-02-24 14:43:00,
2013-02-24 06:48:00,43.5,28.0,30.24,NE,55,0.0,4.0,54,0.00,,---,0.00,VWS V14.00,2013-02-24 14:48:00,
2013-02-24 06:53:00,43.3,28.7,30.25,ENE,59,3.0,4.0,56,0.00,,---,0.00,VWS V14.00,2013-02-24 14:53:00,
2013-02-24 06:58:00,43.2,28.6,30.24,ENE,61,0.0,5.0,56,0.00,,---,0.00,VWS V14.00,2013-02-24 14:58:00,
2013-02-24 07:00:00,43.3,29.1,30.24,East,90,0.0,5.0,57,0.00,,---,0.00,VWS V14.00,2013-02-24 15:00:00,
2013-02-24 07:03:00,43.1,28.9,30.25,NE,55,0.0,4.0,57,0.00,,---,0.00,VWS V14.00,2013-02-24 15:03:00,
2013-02-24 07:08:00,43.2,28.6,30.25,ENE,59,4.0,6.0,56,0.00,,---,0.00,VWS V14.00,2013-02-24 15:08:00,
2013-02-24 07:13:00,43.4,28.8,30.25,East,80,0.0,6.0,56,0.00,,---,0.00,VWS V14.00,2013-02-24 15:13:00,
2013-02-24 07:18:00,43.6,28.5,30.25,ENE,71,3.0,6.0,55,0.00,,---,0.00,VWS V14.00,2013-02-24 15:18:00,
2013-02-24 07:24:00,43.8,28.7,30.25,NE,56,2.0,6.0,55,0.00,,---,0.00,VWS V14.00,2013-02-24 15:24:00,
2013-02-24 07:29:00,43.8,29.1,30.26,WNW,282,2.0,6.0,56,0.00,,---,0.00,VWS V14.00,2013-02-24 15:29:00,
2013-02-24 07:30:00,43.7,29.5,30.26,WNW,282,0.0,6.0,57,0.00,,---,0.00,VWS V14.00,2013-02-24 15:30:00,
2013-02-24 07:34:00,43.7,29.5,30.26,ENE,69,0.0,2.0,57,0.00,,---,0.00,VWS V14.00,2013-02-24 15:34:00,
2013-02-24 07:39:00,44.1,29.0,30.26,ENE,62,0.0,2.0,55,0.00,,---,0.00,VWS V14.00,2013-02-24 15:39:00,
2013-02-24 07:44:00,44.7,29.5,30.26,ENE,61,0.0,3.0,55,0.00,,---,0.00,VWS V14.00,2013-02-24 15:44:00,
2013-02-24 07:50:00,45.3,29.2,30.27,NNW,337,0.0,3.0,53,0.00,,---,0.00,VWS V14.00,2013-02-24 15:50:00,
2013-02-24 07:55:00,46.0,28.4,30.26,NNE,33,0.0,3.0,50,0.00,,---,0.00,VWS V14.00,2013-02-24 15:55:00,
2013-02-24 08:00:00,46.7,29.5,30.26,NE,36,0.0,1.0,51,0.00,,---,0.00,VWS V14.00,2013-02-24 16:00:00,
2013-02-24 08:05:00,47.1,30.4,30.26,NE,49,0.0,5.0,52,0.00,,---,0.00,VWS V14.00,2013-02-24 16:05:00,
2013-02-24 08:10:00,47.6,29.9,30.26,NE,36,0.0,6.0,50,0.00,,---,0.00,VWS V14.00,2013-02-24 16:10:00,
2013-02-24 08:15:00,48.1,30.4,30.27,NE,36,0.0,6.0,50,0.00,,---,0.00,VWS V14.00,2013-02-24 16:15:00,
2013-02-24 08:21:00,48.5,30.2,30.27,NE,36,0.0,6.0,49,0.00,,---,0.00,VWS V14.00,2013-02-24 16:21:00,
2013-02-24 08:26:00,48.8,30.5,30.27,NW,311,0.0,6.0,49,0.00,,---,0.00,VWS V14.00,2013-02-24 16:26:00,
2013-02-24 08:30:00,49.0,31.2,30.27,ENE,75,1.0,6.0,50,0.00,,---,0.00,VWS V14.00,2013-02-24 16:30:00,
2013-02-24 08:31:00,49.2,30.9,30.27,WNW,288,0.0,1.0,49,0.00,,---,0.00,VWS V14.00,2013-02-24 16:31:00,
2013-02-24 08:36:00,49.5,31.1,30.27,NW,307,0.0,1.0,49,0.00,,---,0.00,VWS V14.00,2013-02-24 16:36:00,
2013-02-24 08:42:00,50.0,31.6,30.27,NE,49,0.0,4.0,49,0.00,,---,0.00,VWS V14.00,2013-02-24 16:42:00,
2013-02-24 08:47:00,50.3,31.4,30.27,NE,41,0.0,4.0,48,0.00,,---,0.00,VWS V14.00,2013-02-24 16:47:00,
2013-02-24 08:52:00,50.5,31.0,30.27,NE,55,0.0,5.0,47,0.00,,---,0.00,VWS V14.00,2013-02-24 16:52:00,
2013-02-24 08:57:00,51.0,31.5,30.27,WNW,283,0.0,5.0,47,0.00,,---,0.00,VWS V14.00,2013-02-24 16:57:00,
2013-02-24 09:00:00,51.0,31.0,30.27,WNW,283,0.0,5.0,46,0.00,,---,0.00,VWS V14.00,2013-02-24 17:00:00,
2013-02-24 09:02:00,51.2,31.1,30.27,WNW,283,0.0,0.0,46,0.00,,---,0.00,VWS V14.00,2013-02-24 17:02:00,
2013-02-24 09:08:00,51.5,30.9,30.28,NNW,327,0.0,1.0,45,0.00,,---,0.00,VWS V14.00,2013-02-24 17:08:00,
2013-02-24 09:13:00,52.0,31.3,30.27,NW,326,0.0,1.0,45,0.00,,---,0.00,VWS V14.00,2013-02-24 17:13:00,
2013-02-24 09:18:00,52.6,31.9,30.27,NNW,327,0.0,1.0,45,0.00,,---,0.00,VWS V14.00,2013-02-24 17:18:00,
2013-02-24 09:23:00,52.7,31.4,30.27,NW,319,0.0,4.0,44,0.00,,---,0.00,VWS V14.00,2013-02-24 17:23:00,
2013-02-24 09:28:00,53.3,32.5,30.27,North,350,1.0,4.0,45,0.00,,---,0.00,VWS V14.00,2013-02-24 17:28:00,
2013-02-24 09:30:00,53.4,32.6,30.27,North,351,1.0,4.0,45,0.00,,---,0.00,VWS V14.00,2013-02-24 17:30:00,
2013-02-24 09:33:00,54.0,32.6,30.27,North,355,0.0,1.0,44,0.00,,---,0.00,VWS V14.00,2013-02-24 17:33:00,
2013-02-24 09:39:00,54.8,32.8,30.27,North,355,0.0,1.0,43,0.00,,---,0.00,VWS V14.00,2013-02-24 17:39:00,
2013-02-24 09:44:00,55.1,33.6,30.27,North,355,0.0,1.0,44,0.00,,---,0.00,VWS V14.00,2013-02-24 17:44:00,
2013-02-24 09:49:00,55.4,32.7,30.27,North,355,0.0,1.0,42,0.00,,---,0.00,VWS V14.00,2013-02-24 17:49:00,
2013-02-24 09:54:00,55.4,32.7,30.27,North,355,0.0,1.0,42,0.00,,---,0.00,VWS V14.00,2013-02-24 17:54:00,
2013-02-24 10:00:00,55.6,32.3,30.27,NW,323,0.0,0.0,41,0.00,,---,0.00,VWS V14.00,2013-02-24 18:00:00,
2013-02-24 10:05:00,55.9,32.6,30.27,NE,34,0.0,5.0,41,0.00,,---,0.00,VWS V14.00,2013-02-24 18:05:00,
2013-02-24 10:10:00,55.7,32.4,30.27,NNW,348,0.0,6.0,41,0.00,,---,0.00,VWS V14.00,2013-02-24 18:10:00,
2013-02-24 10:15:00,55.7,32.4,30.27,NNE,26,0.0,6.0,41,0.00,,---,0.00,VWS V14.00,2013-02-24 18:15:00,
2013-02-24 10:20:00,55.9,32.0,30.27,North,355,0.0,6.0,40,0.00,,---,0.00,VWS V14.00,2013-02-24 18:20:00,
2013-02-24 10:25:00,56.3,31.7,30.27,ENE,66,2.0,6.0,39,0.00,,---,0.00,VWS V14.00,2013-02-24 18:25:00,
2013-02-24 10:30:00,56.4,32.4,30.26,ENE,61,4.0,6.0,40,0.00,,---,0.00,VWS V14.00,2013-02-24 18:30:00,
2013-02-24 10:31:00,56.2,33.4,30.27,East,94,2.0,4.0,42,0.00,,---,0.00,VWS V14.00,2013-02-24 18:31:00,
2013-02-24 10:36:00,55.3,32.6,30.27,ENE,65,3.0,6.0,42,0.00,,---,0.00,VWS V14.00,2013-02-24 18:36:00,
2013-02-24 10:41:00,54.9,33.4,30.26,East,82,0.0,6.0,44,0.00,,---,0.00,VWS V14.00,2013-02-24 18:41:00,
2013-02-24 10:46:00,55.4,33.9,30.27,NE,54,0.0,6.0,44,0.00,,---,0.00,VWS V14.00,2013-02-24 18:46:00,
2013-02-24 10:52:00,56.0,33.2,30.27,West,278,0.0,6.0,42,0.00,,---,0.00,VWS V14.00,2013-02-24 18:52:00,
2013-02-24 10:57:00,57.1,33.0,30.27,NNE,25,1.0,6.0,40,0.00,,---,0.00,VWS V14.00,2013-02-24 18:57:00,
2013-02-24 11:00:00,57.3,31.9,30.26,NNE,17,0.0,6.0,38,0.00,,---,0.00,VWS V14.00,2013-02-24 19:00:00,
2013-02-24 11:02:00,57.8,32.4,30.26,NNW,328,0.0,4.0,38,0.00,,---,0.00,VWS V14.00,2013-02-24 19:02:00,
2013-02-24 11:08:00,58.2,30.7,30.26,West,277,0.0,7.0,35,0.00,,---,0.00,VWS V14.00,2013-02-24 19:08:00,
2013-02-24 11:13:00,58.6,30.3,30.26,ENE,69,0.0,7.0,34,0.00,,---,0.00,VWS V14.00,2013-02-24 19:13:00,
2013-02-24 11:18:00,58.6,29.6,30.26,ENE,60,0.0,7.0,33,0.00,,---,0.00,VWS V14.00,2013-02-24 19:18:00,
2013-02-24 11:23:00,58.8,29.0,30.26,NW,317,0.0,7.0,32,0.00,,---,0.00,VWS V14.00,2013-02-24 19:23:00,
2013-02-24 11:29:00,59.6,31.9,30.26,NE,42,0.0,7.0,35,0.00,,---,0.00,VWS V14.00,2013-02-24 19:29:00,
2013-02-24 11:30:00,59.7,31.3,30.26,NE,42,0.0,7.0,34,0.00,,---,0.00,VWS V14.00,2013-02-24 19:30:00,
2013-02-24 11:34:00,60.2,31.8,30.26,NW,308,6.0,9.0,34,0.00,,---,0.00,VWS V14.00,2013-02-24 19:34:00,
2013-02-24 11:39:00,59.9,30.0,30.25,WNW,292,0.0,9.0,32,0.00,,---,0.00,VWS V14.00,2013-02-24 19:39:00,
2013-02-24 11:44:00,60.0,31.6,30.26,ESE,105,0.0,9.0,34,0.00,,---,0.00,VWS V14.00,2013-02-24 19:44:00,
2013-02-24 11:50:00,60.3,33.3,30.25,West,279,0.0,9.0,36,0.00,,---,0.00,VWS V14.00,2013-02-24 19:50:00,
2013-02-24 11:55:00,60.4,31.2,30.25,NNE,31,0.0,9.0,33,0.00,,---,0.00,VWS V14.00,2013-02-24 19:55:00,
2013-02-24 12:00:00,60.7,31.5,30.25,ESE,103,1.0,1.0,33,0.00,,---,0.00,VWS V14.00,2013-02-24 20:00:00,
2013-02-24 12:05:00,60.9,32.4,30.25,ENE,59,0.0,5.0,34,0.00,,---,0.00,VWS V14.00,2013-02-24 20:05:00,
2013-02-24 12:11:00,61.0,31.0,30.25,ENE,72,3.0,5.0,32,0.00,,---,0.00,VWS V14.00,2013-02-24 20:11:00,
2013-02-24 12:16:00,61.1,31.8,30.25,West,279,0.0,5.0,33,0.00,,---,0.00,VWS V14.00,2013-02-24 20:16:00,
2013-02-24 12:21:00,61.4,31.3,30.24,WNW,290,0.0,5.0,32,0.00,,---,0.00,VWS V14.00,2013-02-24 20:21:00,
2013-02-24 12:26:00,61.8,30.9,30.24,NW,312,0.0,5.0,31,0.00,,---,0.00,VWS V14.00,2013-02-24 20:26:00,
2013-02-24 12:30:00,61.9,29.3,30.24,East,80,0.0,5.0,29,0.00,,---,0.00,VWS V14.00,2013-02-24 20:30:00,
2013-02-24 12:31:00,61.9,29.3,30.24,West,272,0.0,1.0,29,0.00,,---,0.00,VWS V14.00,2013-02-24 20:31:00,
2013-02-24 12:36:00,61.4,29.7,30.24,WNW,290,0.0,6.0,30,0.00,,---,0.00,VWS V14.00,2013-02-24 20:36:00,
2013-02-24 12:42:00,61.3,30.4,30.23,ESE,117,0.0,6.0,31,0.00,,---,0.00,VWS V14.00,2013-02-24 20:42:00,
2013-02-24 12:47:00,60.8,29.2,30.23,ENE,64,0.0,8.0,30,0.00,,---,0.00,VWS V14.00,2013-02-24 20:47:00,
2013-02-24 12:52:00,60.7,28.3,30.23,ENE,64,4.0,8.0,29,0.00,,---,0.00,VWS V14.00,2013-02-24 20:52:00,
2013-02-24 12:57:00,60.5,28.1,30.23,West,259,0.0,8.0,29,0.00,,---,0.00,VWS V14.00,2013-02-24 20:57:00,
2013-02-24 13:00:00,62.8,30.1,30.21,ENE,65,0.0,7.0,29,0.00,,---,0.00,VWS V14.00,2013-02-24 21:00:00,
2013-02-24 13:02:00,60.9,29.3,30.23,NW,304,0.0,5.0,30,0.00,,---,0.00,VWS V14.00,2013-02-24 21:02:00,
2013-02-24 13:08:00,61.3,30.4,30.22,WNW,301,0.0,6.0,31,0.00,,---,0.00,VWS V14.00,2013-02-24 21:08:00,
2013-02-24 13:13:00,61.7,29.1,30.22,SE,134,0.0,6.0,29,0.00,,---,0.00,VWS V14.00,2013-02-24 21:13:00,
2013-02-24 13:18:00,62.1,31.1,30.22,SE,124,4.0,6.0,31,0.00,,---,0.00,VWS V14.00,2013-02-24 21:18:00,
2013-02-24 13:23:00,62.3,29.7,30.22,NNE,30,6.0,6.0,29,0.00,,---,0.00,VWS V14.00,2013-02-24 21:23:00,
2013-02-24 13:29:00,62.4,29.8,30.22,WNW,300,0.0,6.0,29,0.00,,---,0.00,VWS V14.00,2013-02-24 21:29:00,
2013-02-24 13:30:00,62.4,29.8,30.22,WNW,300,0.0,6.0,29,0.00,,---,0.00,VWS V14.00,2013-02-24 21:30:00,
2013-02-24 13:34:00,62.6,32.3,30.21,WNW,294,2.0,2.0,32,0.00,,---,0.00,VWS V14.00,2013-02-24 21:34:00,
2013-02-24 13:39:00,62.7,31.6,30.21,East,87,0.0,6.0,31,0.00,,---,0.00,VWS V14.00,2013-02-24 21:39:00,
2013-02-24 13:44:00,63.1,29.5,30.21,ESE,107,2.0,6.0,28,0.00,,---,0.00,VWS V14.00,2013-02-24 21:44:00,
2013-02-24 13:49:00,63.0,30.3,30.21,ENE,75,0.0,6.0,29,0.00,,---,0.00,VWS V14.00,2013-02-24 21:49:00,
2013-02-24 13:54:00,62.8,30.9,30.21,SSW,204,0.0,6.0,30,0.00,,---,0.00,VWS V14.00,2013-02-24 21:54:00,
2013-02-24 14:00:00,62.7,30.0,30.21,East,88,4.0,4.0,29,0.00,,---,0.00,VWS V14.00,2013-02-24 22:00:00,
2013-02-24 14:05:00,61.7,30.0,30.21,NE,55,0.0,7.0,30,0.00,,---,0.00,VWS V14.00,2013-02-24 22:05:00,
2013-02-24 14:10:00,61.5,30.6,30.20,East,98,5.0,8.0,31,0.00,,---,0.00,VWS V14.00,2013-02-24 22:10:00,
2013-02-24 14:15:00,61.6,32.2,30.21,SE,140,0.0,8.0,33,0.00,,---,0.00,VWS V14.00,2013-02-24 22:15:00,
2013-02-24 14:21:00,62.2,31.2,30.20,SSW,202,0.0,8.0,31,0.00,,---,0.00,VWS V14.00,2013-02-24 22:21:00,
2013-02-24 14:26:00,62.2,31.2,30.21,SE,130,0.0,8.0,31,0.00,,---,0.00,VWS V14.00,2013-02-24 22:26:00,
2013-02-24 14:30:00,62.0,31.0,30.21,ENE,76,0.0,8.0,31,0.00,,---,0.00,VWS V14.00,2013-02-24 22:30:00,
2013-02-24 14:31:00,61.9,31.7,30.21,SSW,198,4.0,7.0,32,0.00,,---,0.00,VWS V14.00,2013-02-24 22:31:00,
2013-02-24 14:36:00,61.0,34.6,30.20,SW,225,5.0,11.0,37,0.00,,---,0.00,VWS V14.00,2013-02-24 22:36:00,
2013-02-24 14:41:00,60.7,36.3,30.20,WSW,240,0.0,11.0,40,0.00,,---,0.00,VWS V14.00,2013-02-24 22:41:00,
2013-02-24 14:46:00,60.7,36.9,30.21,South,175,6.0,11.0,41,0.00,,---,0.00,VWS V14.00,2013-02-24 22:46:00,
2013-02-24 14:51:00,59.6,35.9,30.20,SSW,197,4.0,11.0,41,0.00,,---,0.00,VWS V14.00,2013-02-24 22:51:00,
2013-02-24 14:57:00,58.5,36.1,30.20,SW,229,0.0,13.0,43,0.00,,---,0.00,VWS V14.00,2013-02-24 22:57:00,
2013-02-24 15:00:00,58.2,35.2,30.20,WSW,254,5.0,13.0,42,0.00,,---,0.00,VWS V14.00,2013-02-24 23:00:00,
2013-02-24 15:02:00,57.9,35.0,30.20,SSW,213,0.0,11.0,42,0.00,,---,0.00,VWS V14.00,2013-02-24 23:02:00,
2013-02-24 15:07:00,57.7,36.0,30.20,SSE,153,1.0,11.0,44,0.00,,---,0.00,VWS V14.00,2013-02-24 23:07:00,
2013-02-24 15:12:00,58.0,36.8,30.20,SW,229,5.0,11.0,45,0.00,,---,0.00,VWS V14.00,2013-02-24 23:12:00,
2013-02-24 15:17:00,58.0,36.2,30.20,South,186,8.0,11.0,44,0.00,,---,0.00,VWS V14.00,2013-02-24 23:17:00,
2013-02-24 15:22:00,57.8,36.6,30.20,SSW,204,4.0,11.0,45,0.00,,---,0.00,VWS V14.00,2013-02-24 23:22:00,
2013-02-24 15:27:00,57.7,37.1,30.20,SSW,209,3.0,11.0,46,0.00,,---,0.00,VWS V14.00,2013-02-24 23:27:00,
2013-02-24 15:30:00,57.7,37.1,30.20,SW,214,4.0,11.0,46,0.00,,---,0.00,VWS V14.00,2013-02-24 23:30:00,
2013-02-24 15:32:00,57.8,37.2,30.20,SSW,206,3.0,9.0,46,0.00,,---,0.00,VWS V14.00,2013-02-24 23:32:00,
2013-02-24 15:38:00,58.0,36.8,30.19,SW,215,4.0,9.0,45,0.00,,---,0.00,VWS V14.00,2013-02-24 23:38:00,
2013-02-24 15:43:00,58.2,36.4,30.19,SSW,200,0.0,9.0,44,0.00,,---,0.00,VWS V14.00,2013-02-24 23:43:00,
2013-02-24 15:48:00,58.4,35.4,30.19,SSW,198,5.0,9.0,42,0.00,,---,0.00,VWS V14.00,2013-02-24 23:48:00,
2013-02-24 15:53:00,58.2,37.0,30.19,SSW,203,4.0,10.0,45,0.00,,---,0.00,VWS V14.00,2013-02-24 23:53:00,
2013-02-24 15:58:00,58.0,37.4,30.19,South,177,0.0,10.0,46,0.00,,---,0.00,VWS V14.00,2013-02-24 23:58:00,
2013-02-24 16:00:00,58.0,37.4,30.20,SSW,200,1.0,10.0,46,0.00,,---,0.00,VWS V14.00,2013-02-25 00:00:00,
2013-02-24 16:03:00,57.9,37.3,30.19,South,188,1.0,7.0,46,0.00,,---,0.00,VWS V14.00,2013-02-25 00:03:00,
2013-02-24 16:08:00,57.9,36.7,30.19,SSW,207,7.0,10.0,45,0.00,,---,0.00,VWS V14.00,2013-02-25 00:08:00,
2013-02-24 16:14:00,57.6,35.9,30.19,SW,214,4.0,10.0,44,0.00,,---,0.00,VWS V14.00,2013-02-25 00:14:00,
2013-02-24 16:19:00,57.2,35.5,30.19,SSW,213,2.0,10.0,44,0.00,,---,0.00,VWS V14.00,2013-02-25 00:19:00,
2013-02-24 16:24:00,56.8,36.3,30.19,SW,214,4.0,11.0,46,0.00,,---,0.00,VWS V14.00,2013-02-25 00:24:00,
2013-02-24 16:29:00,56.7,37.2,30.19,SSW,207,2.0,11.0,48,0.00,,---,0.00,VWS V14.00,2013-02-25 00:29:00,
2013-02-24 16:30:00,56.7,37.2,30.19,SSW,196,4.0,11.0,48,0.00,,---,0.00,VWS V14.00,2013-02-25 00:30:00,
2013-02-24 16:34:00,56.6,35.5,30.19,SW,232,6.0,12.0,45,0.00,,---,0.00,VWS V14.00,2013-02-25 00:34:00,
2013-02-24 16:39:00,56.4,35.9,30.19,SW,231,1.0,12.0,46,0.00,,---,0.00,VWS V14.00,2013-02-25 00:39:00,
2013-02-24 16:44:00,56.4,35.9,30.20,SW,232,2.0,12.0,46,0.00,,---,0.00,VWS V14.00,2013-02-25 00:44:00,
2013-02-24 16:49:00,56.3,36.3,30.20,SSW,206,0.0,12.0,47,0.00,,---,0.00,VWS V14.00,2013-02-25 00:49:00,
2013-02-24 16:54:00,56.3,36.3,30.20,WSW,240,3.0,12.0,47,0.00,,---,0.00,VWS V14.00,2013-02-25 00:54:00,
2013-02-24 16:59:00,56.4,35.9,30.20,SSW,208,0.0,2.0,46,0.00,,---,0.00,VWS V14.00,2013-02-25 00:59:00,
2013-02-24 17:00:00,56.4,36.4,30.20,SW,214,2.0,12.0,47,0.00,,---,0.00,VWS V14.00,2013-02-25 01:00:00,
2013-02-24 17:04:00,56.2,36.8,30.20,SW,224,1.0,7.0,48,0.00,,---,0.00,VWS V14.00,2013-02-25 01:04:00,
2013-02-24 17:09:00,56.1,36.7,30.20,WSW,254,0.0,7.0,48,0.00,,---,0.00,VWS V14.00,2013-02-25 01:09:00,
2013-02-24 17:14:00,55.9,37.0,30.20,WSW,254,0.0,7.0,49,0.00,,---,0.00,VWS V14.00,2013-02-25 01:14:00,
2013-02-24 17:19:00,55.7,36.8,30.20,WSW,256,0.0,7.0,49,0.00,,---,0.00,VWS V14.00,2013-02-25 01:19:00,
2013-02-24 17:24:00,55.6,36.8,30.21,West,261,0.0,7.0,49,0.00,,---,0.00,VWS V14.00,2013-02-25 01:24:00,
2013-02-24 17:29:00,55.5,36.7,30.21,West,263,0.0,0.0,49,0.00,,---,0.00,VWS V14.00,2013-02-25 01:29:00,
2013-02-24 17:30:00,55.5,36.7,30.21,West,263,0.0,7.0,49,0.00,,---,0.00,VWS V14.00,2013-02-25 01:30:00,
2013-02-24 17:34:00,55.4,36.1,30.21,West,263,0.0,2.0,48,0.00,,---,0.00,VWS V14.00,2013-02-25 01:34:00,
2013-02-24 17:39:00,55.2,36.4,30.21,West,263,0.0,3.0,49,0.00,,---,0.00,VWS V14.00,2013-02-25 01:39:00,
2013-02-24 17:44:00,55.0,36.7,30.21,West,265,0.0,3.0,50,0.00,,---,0.00,VWS V14.00,2013-02-25 01:44:00,
2013-02-24 17:49:00,54.6,35.8,30.21,West,265,0.0,3.0,49,0.00,,---,0.00,VWS V14.00,2013-02-25 01:49:00,
2013-02-24 17:54:00,54.2,36.0,30.21,West,265,0.0,3.0,50,0.00,,---,0.00,VWS V14.00,2013-02-25 01:54:00,
2013-02-24 17:59:00,53.8,36.1,30.21,West,265,0.0,0.0,51,0.00,,---,0.00,VWS V14.00,2013-02-25 01:59:00,
2013-02-24 18:00:00,50.9,36.2,30.23,ESE,115,2.0,7.0,57,0.00,,---,0.00,VWS V14.00,2013-02-25 02:00:00,
2013-02-24 18:04:00,53.4,35.2,30.21,West,265,0.0,1.0,50,0.00,,---,0.00,VWS V14.00,2013-02-25 02:04:00,
2013-02-24 18:09:00,53.2,34.0,30.22,West,265,0.0,1.0,48,0.00,,---,0.00,VWS V14.00,2013-02-25 02:09:00,
2013-02-24 18:14:00,53.0,32.2,30.22,West,265,0.0,1.0,45,0.00,,---,0.00,VWS V14.00,2013-02-25 02:14:00,
2013-02-24 18:19:00,52.9,31.6,30.22,West,265,0.0,1.0,44,0.00,,---,0.00,VWS V14.00,2013-02-25 02:19:00,
2013-02-24 18:24:00,52.9,31.0,30.22,West,265,0.0,1.0,43,0.00,,---,0.00,VWS V14.00,2013-02-25 02:24:00,
2013-02-24 18:29:00,52.9,31.0,30.22,West,265,0.0,0.0,43,0.00,,---,0.00,VWS V14.00,2013-02-25 02:29:00,
2013-02-24 18:30:00,52.9,31.0,30.22,West,265,0.0,1.0,43,0.00,,---,0.00,VWS V14.00,2013-02-25 02:30:00,
2013-02-24 18:34:00,52.8,32.1,30.22,West,265,0.0,0.0,45,0.00,,---,0.00,VWS V14.00,2013-02-25 02:34:00,
2013-02-24 18:39:00,52.7,32.0,30.22,West,265,0.0,0.0,45,0.00,,---,0.00,VWS V14.00,2013-02-25 02:39:00,
2013-02-24 18:44:00,52.7,33.6,30.22,West,265,0.0,0.0,48,0.00,,---,0.00,VWS V14.00,2013-02-25 02:44:00,
2013-02-24 18:49:00,52.1,34.0,30.22,East,94,2.0,7.0,50,0.00,,---,0.00,VWS V14.00,2013-02-25 02:49:00,
2013-02-24 18:54:00,51.5,34.5,30.23,ESE,115,2.0,7.0,52,0.00,,---,0.00,VWS V14.00,2013-02-25 02:54:00,
2013-02-24 18:59:00,50.9,36.2,30.23,ESE,115,4.0,4.0,57,0.00,,---,0.00,VWS V14.00,2013-02-25 02:59:00,
2013-02-24 19:00:00,47.7,42.2,30.24,ESE,107,5.0,6.0,81,0.00,,---,0.00,VWS V14.00,2013-02-25 03:00:00,
2013-02-24 19:04:00,50.5,39.2,30.23,ESE,111,5.0,9.0,65,0.00,,---,0.00,VWS V14.00,2013-02-25 03:04:00,
2013-02-24 19:09:00,50.2,40.4,30.24,ESE,102,6.0,9.0,69,0.00,,---,0.00,VWS V14.00,2013-02-25 03:09:00,
2013-02-24 19:14:00,49.9,40.9,30.24,East,94,4.0,9.0,71,0.00,,---,0.00,VWS V14.00,2013-02-25 03:14:00,
2013-02-24 19:19:00,49.6,41.0,30.23,East,83,0.0,9.0,72,0.00,,---,0.00,VWS V14.00,2013-02-25 03:19:00,
2013-02-24 19:24:00,49.2,40.9,30.24,East,88,4.0,9.0,73,0.00,,---,0.00,VWS V14.00,2013-02-25 03:24:00,
2013-02-24 19:29:00,48.8,41.6,30.24,ESE,109,2.0,2.0,76,0.00,,---,0.00,VWS V14.00,2013-02-25 03:29:00,
2013-02-24 19:30:00,47.1,41.9,30.25,East,94,5.0,8.0,82,0.00,,---,0.00,VWS V14.00,2013-02-25 03:30:00,
2013-02-24 19:34:00,48.6,42.1,30.24,East,89,0.0,6.0,78,0.00,,---,0.00,VWS V14.00,2013-02-25 03:34:00,
2013-02-24 19:39:00,48.3,42.1,30.24,East,90,0.0,6.0,79,0.00,,---,0.00,VWS V14.00,2013-02-25 03:39:00,
2013-02-24 19:44:00,48.1,41.9,30.24,East,101,0.0,6.0,79,0.00,,---,0.00,VWS V14.00,2013-02-25 03:44:00,
2013-02-24 19:49:00,47.9,42.0,30.24,East,83,0.0,6.0,80,0.00,,---,0.00,VWS V14.00,2013-02-25 03:49:00,
2013-02-24 19:54:00,47.8,41.9,30.24,East,101,1.0,6.0,80,0.00,,---,0.00,VWS V14.00,2013-02-25 03:54:00,
2013-02-24 19:59:00,47.6,42.1,30.24,ESE,105,4.0,6.0,81,0.00,,---,0.00,VWS V14.00,2013-02-25 03:59:00,
2013-02-24 20:00:00,46.9,41.1,30.26,ESE,107,2.0,9.0,80,0.00,,---,0.00,VWS V14.00,2013-02-25 04:00:00,
2013-02-24 20:04:00,47.5,42.0,30.25,East,98,0.0,8.0,81,0.00,,---,0.00,VWS V14.00,2013-02-25 04:04:00,
2013-02-24 20:09:00,47.4,42.2,30.25,ESE,107,4.0,8.0,82,0.00,,---,0.00,VWS V14.00,2013-02-25 04:09:00,
2013-02-24 20:14:00,47.3,42.1,30.25,ESE,103,2.0,8.0,82,0.00,,---,0.00,VWS V14.00,2013-02-25 04:14:00,
2013-02-24 20:19:00,47.3,42.1,30.25,East,97,2.0,8.0,82,0.00,,---,0.00,VWS V14.00,2013-02-25 04:19:00,
2013-02-24 20:24:00,47.2,42.0,30.25,ESE,106,4.0,8.0,82,0.00,,---,0.00,VWS V14.00,2013-02-25 04:24:00,
2013-02-24 20:29:00,47.1,41.9,30.25,ESE,102,5.0,8.0,82,0.00,,---,0.00,VWS V14.00,2013-02-25 04:29:00,
2013-02-24 20:30:00,46.9,40.7,30.27,SE,136,0.0,7.0,79,0.00,,---,0.00,VWS V14.00,2013-02-25 04:30:00,
2013-02-24 20:34:00,47.0,41.8,30.26,ESE,105,5.0,9.0,82,0.00,,---,0.00,VWS V14.00,2013-02-25 04:34:00,
2013-02-24 20:39:00,47.0,41.8,30.26,ESE,110,6.0,9.0,82,0.00,,---,0.00,VWS V14.00,2013-02-25 04:39:00,
2013-02-24 20:44:00,46.9,41.7,30.26,East,92,0.0,9.0,82,0.00,,---,0.00,VWS V14.00,2013-02-25 04:44:00,
2013-02-24 20:49:00,46.9,41.4,30.26,ESE,112,0.0,9.0,81,0.00,,---,0.00,VWS V14.00,2013-02-25 04:49:00,
2013-02-24 20:54:00,46.9,41.4,30.26,East,98,0.0,9.0,81,0.00,,---,0.00,VWS V14.00,2013-02-25 04:54:00,
2013-02-24 20:59:00,46.9,41.1,30.26,ESE,107,4.0,9.0,80,0.00,,---,0.00,VWS V14.00,2013-02-25 04:59:00,
2013-02-24 21:00:00,46.9,41.1,30.26,ESE,107,1.0,4.0,80,0.00,,---,0.00,VWS V14.00,2013-02-25 05:00:00,
2013-02-24 21:05:00,46.9,41.1,30.26,ESE,105,2.0,5.0,80,0.00,,---,0.00,VWS V14.00,2013-02-25 05:05:00,
2013-02-24 21:10:00,46.8,41.0,30.26,ESE,107,0.0,7.0,80,0.00,,---,0.00,VWS V14.00,2013-02-25 05:10:00,
2013-02-24 21:15:00,46.9,41.1,30.27,ESE,105,0.0,7.0,80,0.00,,---,0.00,VWS V14.00,2013-02-25 05:15:00,
2013-02-24 21:20:00,46.9,41.1,30.26,East,101,0.0,7.0,80,0.00,,---,0.00,VWS V14.00,2013-02-25 05:20:00,
2013-02-24 21:25:00,47.0,40.8,30.26,SE,136,0.0,7.0,79,0.00,,---,0.00,VWS V14.00,2013-02-25 05:25:00,
2013-02-24 21:30:00,46.9,40.7,30.27,SE,136,0.0,0.0,79,0.00,,---,0.00,VWS V14.00,2013-02-25 05:30:00,
2013-02-24 21:35:00,46.9,40.7,30.27,SE,136,0.0,0.0,79,0.00,,---,0.00,VWS V14.00,2013-02-25 05:35:00,
2013-02-24 21:40:00,46.9,40.4,30.27,SE,136,0.0,0.0,78,0.00,,---,0.00,VWS V14.00,2013-02-25 05:40:00,
2013-02-24 21:45:00,46.8,40.3,30.27,SE,136,0.0,0.0,78,0.00,,---,0.00,VWS V14.00,2013-02-25 05:45:00,
2013-02-24 21:50:00,46.9,40.7,30.28,SE,136,0.0,0.0,79,0.00,,---,0.00,VWS V14.00,2013-02-25 05:50:00,
2013-02-24 21:55:00,47.0,40.5,30.27,SE,136,0.0,2.0,78,0.00,,---,0.00,VWS V14.00,2013-02-25 05:55:00,
2013-02-24 22:00:00,47.1,40.6,30.27,SE,136,0.0,0.0,78,0.00,,---,0.00,VWS V14.00,2013-02-25 06:00:00,
2013-02-24 22:04:00,47.2,40.4,30.28,SE,136,0.0,1.0,77,0.00,,---,0.00,VWS V14.00,2013-02-25 06:04:00,
2013-02-24 22:09:00,47.1,40.3,30.28,SE,136,0.0,1.0,77,0.00,,---,0.00,VWS V14.00,2013-02-25 06:09:00,
2013-02-24 22:14:00,47.1,40.3,30.28,SE,136,0.0,1.0,77,0.00,,---,0.00,VWS V14.00,2013-02-25 06:14:00,
2013-02-24 22:19:00,47.2,40.4,30.28,SE,136,0.0,1.0,77,0.00,,---,0.00,VWS V14.00,2013-02-25 06:19:00,
2013-02-24 22:24:00,47.3,40.1,30.29,SE,136,0.0,2.0,76,0.00,,---,0.00,VWS V14.00,2013-02-25 06:24:00,
2013-02-24 22:29:00,47.2,40.0,30.29,SE,136,0.0,2.0,76,0.00,,---,0.00,VWS V14.00,2013-02-25 06:29:00,
2013-02-24 22:30:00,46.3,41.1,30.30,SE,136,0.0,1.0,82,0.00,,---,0.00,VWS V14.00,2013-02-25 06:30:00,
2013-02-24 22:34:00,47.2,40.0,30.29,SE,136,0.0,2.0,76,0.00,,---,0.00,VWS V14.00,2013-02-25 06:34:00,
2013-02-24 22:39:00,47.1,39.9,30.29,SE,136,0.0,2.0,76,0.00,,---,0.00,VWS V14.00,2013-02-25 06:39:00,
2013-02-24 22:44:00,47.0,40.2,30.29,SE,136,0.0,2.0,77,0.00,,---,0.00,VWS V14.00,2013-02-25 06:44:00,
2013-02-24 22:49:00,47.0,40.5,30.29,SE,136,0.0,2.0,78,0.00,,---,0.00,VWS V14.00,2013-02-25 06:49:00,
2013-02-24 22:54:00,47.0,41.2,30.29,SE,136,0.0,2.0,80,0.00,,---,0.00,VWS V14.00,2013-02-25 06:54:00,
2013-02-24 22:59:00,47.0,41.2,30.29,SE,136,0.0,0.0,80,0.00,,---,0.00,VWS V14.00,2013-02-25 06:59:00,
2013-02-24 23:00:00,47.0,40.8,30.29,SE,136,0.0,2.0,79,0.00,,---,0.00,VWS V14.00,2013-02-25 07:00:00,
2013-02-24 23:04:00,46.9,41.4,30.30,SE,136,0.0,0.0,81,0.00,,---,0.00,VWS V14.00,2013-02-25 07:04:00,
2013-02-24 23:09:00,46.8,41.3,30.30,SE,136,0.0,0.0,81,0.00,,---,0.00,VWS V14.00,2013-02-25 07:09:00,
2013-02-24 23:14:00,46.6,41.1,30.30,SE,136,0.0,0.0,81,0.00,,---,0.00,VWS V14.00,2013-02-25 07:14:00,
2013-02-24 23:19:00,46.4,41.2,30.30,SE,136,0.0,0.0,82,0.00,,---,0.00,VWS V14.00,2013-02-25 07:19:00,
2013-02-24 23:24:00,46.2,41.0,30.30,SE,136,0.0,1.0,82,0.00,,---,0.00,VWS V14.00,2013-02-25 07:24:00,
2013-02-24 23:29:00,46.3,41.1,30.29,SE,136,0.0,0.0,82,0.00,,---,0.00,VWS V14.00,2013-02-25 07:29:00,
2013-02-24 23:30:00,46.4,40.9,30.30,SE,136,0.0,0.0,81,0.00,,---,0.00,VWS V14.00,2013-02-25 07:30:00,
2013-02-24 23:34:00,46.3,40.8,30.29,SE,136,0.0,1.0,81,0.00,,---,0.00,VWS V14.00,2013-02-25 07:34:00,
2013-02-24 23:39:00,46.4,40.6,30.29,SE,136,0.0,2.0,80,0.00,,---,0.00,VWS V14.00,2013-02-25 07:39:00,
2013-02-24 23:44:00,46.6,40.5,30.29,SE,136,0.0,2.0,79,0.00,,---,0.00,VWS V14.00,2013-02-25 07:44:00,
2013-02-24 23:49:00,46.8,40.6,30.30,SE,136,0.0,2.0,79,0.00,,---,0.00,VWS V14.00,2013-02-25 07:49:00,
2013-02-24 23:54:00,46.9,40.7,30.30,SE,136,0.0,2.0,79,0.00,,---,0.00,VWS V14.00,2013-02-25 07:54:00,
2013-02-24 23:59:00,47.0,40.8,30.29,SE,136,0.0,0.0,79,0.00,,---,0.00,VWS V14.00,2013-02-25 07:59:00,